AirNav   Pilot Hours Calculator
 
 1404 users online  

KUDG Darlington County Airport
Darlington, South Carolina, USA

GOING TO DARLINGTON?


FAA INFORMATION EFFECTIVE 07 NOVEMBER 2019

Location

FAA Identifier: UDG
Lat/Long: 34-26-57.7841N 079-53-24.2190W
34-26.963068N 079-53.403650W
34.4493845,-79.8900608
(estimated)
Elevation: 192.2 ft. / 58.6 m (surveyed)
Variation: 06W (1985)
From city: 9 miles N of DARLINGTON, SC
Time zone: UTC -5 (UTC -4 during Daylight Saving Time)
Zip code: 29593

Airport Operations

Airport use: Open to the public
Activation date: 10/1943
Control tower: no
ARTCC: JACKSONVILLE CENTER
FSS: ANDERSON FLIGHT SERVICE STATION
NOTAMs facility: UDG (NOTAM-D service available)
Attendance: MON-FRI 0800-1700
Wind indicator: yes
Segmented circle: yes
Lights: TWY LGTS OPER & MIRL RY 05/23 ARE PRESET LOW INTST DUSK-2300; TO INCR INTST - CTAF. AFTER 2300, ACTVT MIRL 05/23; REIL RY 05/23 & TWY LGTS - CTAF.
Beacon: white-green (lighted land airport)
Operates sunset to sunrise.

Airport Communications

CTAF/UNICOM: 123.0
WX AWOS-3PT: 119.925 (843-393-8220)
FLORENCE APPROACH: 118.6
FLORENCE DEPARTURE: 118.6
CLEARANCE DELIVERY: 118.55
WX AWOS-3 at HVS (12 nm W): 118.225 (843-339-9625)
WX AWOS-3PT at BBP (13 nm NE): 123.825 (843-479-5817)
WX AWOS-3 at CQW (16 nm N): 124.825 (843-537-3301)
WX ASOS at FLO (18 nm SE): PHONE 843-665-1306
  • APCH/DEP SVC PRVDD BY JACKSONVILLE ARTCC ON FREQS 133.45/306.3 (FLORENCE RCAG) WHEN FLORENCE APCH CTL CLSD.

Nearby radio navigation aids

VOR radial/distance  VOR name  Freq  Var
FLOr321/17.4FLORENCE VORTAC115.2003W
CTFr125/22.5CHESTERFIELD VOR/DME108.2003W

 
NDB name  Hdg/Dist  Freq  Var  ID
DARLINGTONat field24506WUDG ..- -.. --.
HARTSVILLE084/11.734107WHVS .... ...- ...
BENNETTSVILLE225/12.923008WBES -... . ...
DILLON279/25.827409WDLC -.. .-.. -.-.
SUMTER047/36.125207WSMS ... -- ...
EVANS356/36.242006WCFY -.-. ..-. -.--

Airport Services

Fuel available: 100LL JET-A
Parking: hangars and tiedowns
Powerplant service: NONE
Bottled oxygen: NONE
Bulk oxygen: NONE

Runway Information

Runway 5/23

Dimensions: 5500 x 100 ft. / 1676 x 30 m
Surface: asphalt, in good condition
Weight bearing capacity: 
PCN 6 /F/C/Y/T
Single wheel: 17.0
Double wheel: 27.0
Runway edge lights: medium intensity
RUNWAY 5  RUNWAY 23
Latitude: 34-26.521218N34-27.177413N
Longitude: 079-53.563143W079-52.807717W
Elevation: 188.5 ft.183.1 ft.
Traffic pattern: leftleft
Runway heading: 049 magnetic, 043 true229 magnetic, 223 true
Markings: nonprecision, in good conditionnonprecision, in good condition
Visual slope indicator: 2-light PAPI on left (3.00 degrees glide path)2-light PAPI on left (3.00 degrees glide path)
Approach lights: ODALS: omnidirectional approach lighting system
Runway end identifier lights: yesyes
Touchdown point: yes, no lightsyes, no lights
Obstructions: none55 ft. tree, 1946 ft. from runway, 130 ft. right of centerline, 31:1 slope to clear

Airport Ownership and Management from official FAA records

Ownership: Publicly-owned
Owner: DARLINGTON COUNTY
COUNTY COURTHOUSE
DARLINGTON, SC 29532
Phone (843) 393-4100
Manager: BARRY KENNETT
313 G.GRAHAM SEGARS PARKWAY
DARLINGTON, SC 29540
Phone 843-393-9928

Airport Operational Statistics

Aircraft based on the field: 9
Single engine airplanes: 7
Jet airplanes: 2
    
Aircraft operations: avg 117/week *
60% local general aviation
30% transient general aviation
8% air taxi
2% military
* for 12-month period ending 12 August 2019

Additional Remarks

AFTER HRS SERVICE CALL 843-393-9928.
FOR CD CTC FLORENCE APCH AT 843-669-5194, WHEN APCH CLSD CTC JACKSONVILLE ARTCC AT 904-845-1592.

Instrument Procedures

NOTE: All procedures below are presented as PDF files. If you need a reader for these files, you should download the free Adobe Reader.

NOT FOR NAVIGATION. Please procure official charts for flight.
FAA instrument procedures published for use from 07 November 2019 at 0901Z to 05 December 2019 at 0900Z.

 
IAPs - Instrument Approach Procedures
RNAV (GPS) RWY 05   download (205KB)
RNAV (GPS) RWY 23   download (237KB)
VOR-A   download (154KB)
NDB RWY 23   download (188KB)
NOTE: Special Alternate Minimums apply   download (65KB)
NOTE: Special Take-Off Minimums/Departure Procedures apply   download (209KB)

Other nearby airports with instrument procedures:

KHVS - Hartsville Regional Airport (12 nm W)
KBBP - Marlboro County Jetport - H E Avent Field (13 nm NE)
KCQW - Cheraw Municipal Airport/Lynch Bellinger Field (16 nm N)
KFLO - Florence Regional Airport (18 nm SE)
KDLC - Dillon County Airport (26 nm E)
 
Loc | Ops | Rwys | IFR | FBO | Links
Com | Nav | Svcs | Stats | Notes
Area around KUDG (Darlington County Airport)
 
Road maps at: MapQuest Bing Google
 
Aerial photo
WARNING: Photo may not be current or correct
Aerial photo of KUDG (Darlington County Airport)
Photo taken 11-Sep-2009

Do you have a better or more recent aerial photo of Darlington County Airport that you would like to share? If so, please send us your photo.

 
Sectional chart

 
Airport distance calculator
Flying to Darlington County Airport? Find the distance to fly.

From to KUDG

Sunrise and sunset
Times for 21-Nov-2019
 Local
(UTC-5)
 Zulu
(UTC)
Morning civil twilight06:3311:33
Sunrise07:0012:00
Sunset17:1122:11
Evening civil twilight17:3822:38

Current date and time
Zulu (UTC)  21-Nov-2019 17:24:50
Local (UTC-5)  21-Nov-2019 12:24:50
 
METAR
KUDG 211656Z AUTO 10003KT 10SM CLR 13/03 A3028 RMK AO2 PRESFR SLP256 T01330028
KHVS 
12nm W 
211655Z AUTO 00000KT 10SM CLR 13/02 A3028 RMK AO2
KBBP 
13nm NE 
211655Z AUTO 22003KT 10SM CLR 12/02 A3030 RMK AO2
KCQW 
16nm N 
211655Z AUTO VRB04KT 10SM CLR 14/02 A3028 RMK AO2
KFLO 
18nm SE 
211653Z 00000KT 10SM CLR 14/02 A3029 RMK AO2 PRESFR SLP254 T01440022
TAF
KFLO 
18nm SE 
211140Z 2112/2212 VRB03KT P6SM FEW250
NOTAMs
Click for the latest NOTAMs
NOTAMs are issued by the DoD/FAA and will open in a separate window not controlled by AirNav.

 

 
 

FBO, Fuel Providers, and Aircraft Ground Support

  
 Business Name 
 
 Contact 
 
 Services / Description 
 
Fuel Prices
 
Comments
  
Darlington County Jetport 843-393-9928
no information available

If you are affiliated with Darlington County Jetport and would like to show here your services, contact info, web link, logo, and more, click here
100LL Jet A
AS $3.90 --- 
FS --- $3.75 
 Updated 22-Oct-2019
 
   7 read write
AS=Assisted/Self Service
FS=Full service
Update Fuel Prices
 

Would you like to see your business listed on this page?

 If your business provides an interesting product or service to pilots, flight crews, aircraft, or users of the Darlington County Airport, you should consider listing it here.  To start the listing process, click on the button below
 
Add a business
 

Other Pages about Darlington County Airport

Update a link
 
Copyright © AirNav, LLC. All rights reserved. Privacy Policy  Contact